Tracking 23610 objects as of 19-Sep-2021
HD Live streaming from Space Station
objects crossing your sky now

ONEWEB-0299

Track ONEWEB-0299 now!
10-day predictions
ONEWEB-0299 is classified as:


NORAD ID: 49088
Int'l Code: 2021-075P
Perigee: 522.3 km
Apogee: 548.1 km
Inclination: 87.4 °
Period: 95.2 minutes
Semi major axis: 6906 km
RCS: Unknown
Launch date: August 21, 2021
Source: United Kingdom (UK)
Launch site: TYURATAM MISSILE AND SPACE COMPLEX (TTMTR)
aabbcc
Your satellite tracking list
Your tracking list is empty




NASA's NSSDC Master Catalog

Two Line Element Set (TLE):
1 49088U 21075P   21262.16668981 -.00929967  00000-0 -57257-1 0  9993
2 49088  87.4134 356.4541 0018630 195.2327 178.0836 15.12669292  5587
Source of the keplerian elements: AFSPC